Location: Melara
(45.0500°N, 11.1833°E)
Time: 21:46:17
(UTC+00:00)

CZ-4C R/B - Pass Details

Date: 26 May 2022
Orbit: 581 x 1420 km, 63.4° (Epoch: 03 July)

Event Time Altitude Azimuth Distance (km) Brightness Sun altitude
Rises 00:15:14 0° 318° (NW) 3,902 6.1 -22.3°
Reaches altitude 10° 00:17:49 10° 313° (NW) 3,053 5.4 -22.2°
Maximum altitude 00:24:57 49° 242° (WSW) 1,631 3.3 -21.8°
Enters shadow 00:28:01 35° 193° (SSW) 2,038 3.6 -21.6°
